Time,TemperatureF,DewpointF,PressureIn,WindDirection,WindDirectionDegrees,WindSpeedMPH,WindSpeedGustMPH,Humidity,HourlyPrecipIn,Conditions,Clouds,dailyrainin,SoftwareType,DateUTC
2013-11-14 00:01:00,56.9,43.6,30.12,NW,315,3.4,3.8,61,0.00,,,0.00,WUHU216HW,2013-11-14 08:01:00,
2013-11-14 00:06:00,56.9,43.6,30.13,NW,315,3.8,4.3,61,0.00,,,0.00,WUHU216HW,2013-11-14 08:06:00,
2013-11-14 00:11:00,56.9,43.6,30.12,NW,315,3.4,5.1,61,0.00,,,0.00,WUHU216HW,2013-11-14 08:11:00,
2013-11-14 00:16:00,56.7,43.4,30.13,NNW,338,2.5,5.1,61,0.00,,,0.00,WUHU216HW,2013-11-14 08:16:00,
2013-11-14 00:21:00,56.5,43.2,30.13,NNW,338,1.3,3.4,61,0.00,,,0.00,WUHU216HW,2013-11-14 08:21:00,
2013-11-14 00:26:00,56.5,43.2,30.13,North,0,0.4,3.1,61,0.00,,,0.00,WUHU216HW,2013-11-14 08:26:00,
2013-11-14 00:31:00,56.3,43.0,30.13,North,0,2.5,2.5,61,0.00,,,0.00,WUHU216HW,2013-11-14 08:31:00,
2013-11-14 00:36:00,56.2,43.3,30.13,North,0,1.3,3.6,62,0.00,,,0.00,WUHU216HW,2013-11-14 08:36:00,
2013-11-14 00:41:00,56.0,43.1,30.13,North,0,0.7,3.6,62,0.00,,,0.00,WUHU216HW,2013-11-14 08:41:00,
2013-11-14 00:46:00,55.8,43.4,30.13,NNE,23,1.8,2.7,63,0.00,,,0.00,WUHU216HW,2013-11-14 08:46:00,
2013-11-14 00:51:00,55.6,43.2,30.12,North,0,0.9,2.7,63,0.00,,,0.00,WUHU216HW,2013-11-14 08:51:00,
2013-11-14 00:56:00,55.3,42.9,30.12,NNW,338,1.6,1.8,63,0.00,,,0.00,WUHU216HW,2013-11-14 08:56:00,
2013-11-14 01:01:00,55.1,43.1,30.12,NNE,23,1.1,1.8,64,0.00,,,0.00,WUHU216HW,2013-11-14 09:01:00,
2013-11-14 01:06:00,54.7,42.8,30.12,NNE,23,4.0,4.0,64,0.00,,,0.00,WUHU216HW,2013-11-14 09:06:00,
2013-11-14 01:11:00,54.5,43.4,30.12,North,0,2.5,4.0,66,0.00,,,0.00,WUHU216HW,2013-11-14 09:11:00,
2013-11-14 01:16:00,54.4,42.9,30.12,North,0,0.7,4.3,65,0.00,,,0.00,WUHU216HW,2013-11-14 09:16:00,
2013-11-14 01:21:00,54.2,43.0,30.13,North,0,0.9,4.3,66,0.00,,,0.00,WUHU216HW,2013-11-14 09:21:00,
2013-11-14 01:26:00,54.0,43.3,30.13,NW,315,1.1,3.4,67,0.00,,,0.00,WUHU216HW,2013-11-14 09:26:00,
2013-11-14 01:31:00,53.8,43.1,30.13,NNW,338,1.1,1.6,67,0.00,,,0.00,WUHU216HW,2013-11-14 09:31:00,
2013-11-14 01:36:00,53.6,42.5,30.13,NNW,338,0.4,1.6,66,0.00,,,0.00,WUHU216HW,2013-11-14 09:36:00,
2013-11-14 01:41:00,53.6,42.5,30.13,NNW,338,0.7,1.8,66,0.00,,,0.00,WUHU216HW,2013-11-14 09:41:00,
2013-11-14 01:46:00,53.3,42.6,30.13,North,0,1.8,2.0,67,0.00,,,0.00,WUHU216HW,2013-11-14 09:46:00,
2013-11-14 01:51:00,52.9,42.2,30.13,NNE,23,1.6,2.2,67,0.00,,,0.00,WUHU216HW,2013-11-14 09:51:00,
2013-11-14 01:56:00,52.9,42.7,30.13,North,0,1.8,3.1,68,0.00,,,0.00,WUHU216HW,2013-11-14 09:56:00,
2013-11-14 02:01:00,52.7,42.5,30.13,NE,45,1.6,3.1,68,0.00,,,0.00,WUHU216HW,2013-11-14 10:01:00,
2013-11-14 02:06:00,52.6,42.8,30.13,North,0,2.0,2.5,69,0.00,,,0.00,WUHU216HW,2013-11-14 10:06:00,
2013-11-14 02:11:00,52.4,42.6,30.13,NNE,23,1.1,3.6,69,0.00,,,0.00,WUHU216HW,2013-11-14 10:11:00,
2013-11-14 02:17:00,52.4,44.0,30.13,ENE,68,3.4,4.0,73,0.00,,,0.00,WUHU216HW,2013-11-14 10:17:00,
2013-11-14 02:22:00,52.2,44.6,30.13,ENE,68,4.3,5.8,75,0.00,,,0.00,WUHU216HW,2013-11-14 10:22:00,
2013-11-14 02:27:00,52.2,43.8,30.13,NE,45,3.1,5.8,73,0.00,,,0.00,WUHU216HW,2013-11-14 10:27:00,
2013-11-14 02:32:00,52.2,43.5,30.13,NNE,23,2.0,5.4,72,0.00,,,0.00,WUHU216HW,2013-11-14 10:32:00,
2013-11-14 02:37:00,52.2,43.5,30.13,NE,45,4.7,4.7,72,0.00,,,0.00,WUHU216HW,2013-11-14 10:37:00,
2013-11-14 02:42:00,52.2,44.2,30.12,NE,45,4.0,4.7,74,0.00,,,0.00,WUHU216HW,2013-11-14 10:42:00,
2013-11-14 02:47:00,52.2,44.6,30.12,ENE,68,5.4,5.4,75,0.00,,,0.00,WUHU216HW,2013-11-14 10:47:00,
2013-11-14 02:52:00,52.0,44.4,30.12,NE,45,1.8,5.4,75,0.00,,,0.00,WUHU216HW,2013-11-14 10:52:00,
2013-11-14 02:57:00,52.2,45.2,30.12,NE,45,4.3,5.4,77,0.00,,,0.00,WUHU216HW,2013-11-14 10:57:00,
2013-11-14 03:02:00,52.2,45.2,30.12,East,90,2.2,4.7,77,0.00,,,0.00,WUHU216HW,2013-11-14 11:02:00,
2013-11-14 03:07:00,52.2,44.9,30.12,ENE,68,2.0,4.3,76,0.00,,,0.00,WUHU216HW,2013-11-14 11:07:00,
2013-11-14 03:12:00,52.2,44.9,30.12,East,90,0.4,4.0,76,0.00,,,0.00,WUHU216HW,2013-11-14 11:12:00,
2013-11-14 03:17:00,52.2,44.6,30.12,ESE,113,0.7,4.0,75,0.00,,,0.00,WUHU216HW,2013-11-14 11:17:00,
2013-11-14 03:22:00,52.0,44.4,30.12,SE,135,0.4,1.3,75,0.00,,,0.00,WUHU216HW,2013-11-14 11:22:00,
2013-11-14 03:27:00,52.0,44.4,30.12,SSE,158,0.0,1.3,75,0.00,,,0.00,WUHU216HW,2013-11-14 11:27:00,
2013-11-14 03:32:00,52.0,44.4,30.12,SE,135,0.0,0.7,75,0.00,,,0.00,WUHU216HW,2013-11-14 11:32:00,
2013-11-14 03:37:00,51.8,44.6,30.11,ENE,68,0.4,1.1,76,0.00,,,0.00,WUHU216HW,2013-11-14 11:37:00,
2013-11-14 03:42:00,51.8,44.2,30.11,East,90,0.0,1.1,75,0.00,,,0.00,WUHU216HW,2013-11-14 11:42:00,
2013-11-14 03:47:00,51.7,44.0,30.11,East,90,0.0,0.9,75,0.00,,,0.00,WUHU216HW,2013-11-14 11:47:00,
2013-11-14 03:52:00,51.5,43.8,30.11,East,90,0.0,0.0,75,0.00,,,0.00,WUHU216HW,2013-11-14 11:52:00,
2013-11-14 03:57:00,51.5,43.8,30.12,SSE,158,0.0,0.9,75,0.00,,,0.00,WUHU216HW,2013-11-14 11:57:00,
2013-11-14 04:02:00,51.1,43.5,30.12,SSE,158,0.0,0.9,75,0.00,,,0.00,WUHU216HW,2013-11-14 12:02:00,
2013-11-14 04:07:00,51.1,43.5,30.11,SSE,158,0.0,0.0,75,0.00,,,0.00,WUHU216HW,2013-11-14 12:07:00,
2013-11-14 04:12:00,50.9,43.3,30.12,ENE,68,0.0,0.0,75,0.00,,,0.00,WUHU216HW,2013-11-14 12:12:00,
2013-11-14 04:17:00,50.8,43.1,30.11,ENE,68,0.0,0.0,75,0.00,,,0.00,WUHU216HW,2013-11-14 12:17:00,
2013-11-14 04:22:00,50.8,43.5,30.12,ENE,68,0.0,0.0,76,0.00,,,0.00,WUHU216HW,2013-11-14 12:22:00,
2013-11-14 04:27:00,50.8,43.5,30.11,NE,45,0.0,0.7,76,0.00,,,0.00,WUHU216HW,2013-11-14 12:27:00,
2013-11-14 04:32:00,50.8,43.5,30.11,NE,45,0.0,0.7,76,0.00,,,0.00,WUHU216HW,2013-11-14 12:32:00,
2013-11-14 04:37:00,50.8,43.5,30.11,East,90,0.0,1.6,76,0.00,,,0.00,WUHU216HW,2013-11-14 12:37:00,
2013-11-14 04:42:00,50.6,43.3,30.11,ENE,68,0.0,1.6,76,0.00,,,0.00,WUHU216HW,2013-11-14 12:42:00,
2013-11-14 04:47:00,50.4,43.1,30.11,ENE,68,0.0,0.0,76,0.00,,,0.00,WUHU216HW,2013-11-14 12:47:00,
2013-11-14 04:52:00,50.4,43.1,30.11,ENE,68,0.0,0.0,76,0.00,,,0.00,WUHU216HW,2013-11-14 12:52:00,
2013-11-14 04:57:00,50.4,43.1,30.11,ENE,68,0.0,0.0,76,0.00,,,0.00,WUHU216HW,2013-11-14 12:57:00,
2013-11-14 05:02:00,50.4,43.1,30.10,ENE,68,0.0,0.0,76,0.00,,,0.00,WUHU216HW,2013-11-14 13:02:00,
2013-11-14 05:07:00,50.2,43.3,30.10,ESE,113,0.9,0.9,77,0.00,,,0.00,WUHU216HW,2013-11-14 13:07:00,
2013-11-14 05:12:00,50.2,43.3,30.10,ENE,68,0.4,1.1,77,0.00,,,0.00,WUHU216HW,2013-11-14 13:12:00,
2013-11-14 05:17:00,50.0,43.1,30.10,NE,45,0.0,1.1,77,0.00,,,0.00,WUHU216HW,2013-11-14 13:17:00,
2013-11-14 05:22:00,50.0,43.1,30.10,NE,45,0.0,0.9,77,0.00,,,0.00,WUHU216HW,2013-11-14 13:22:00,
2013-11-14 05:27:00,50.0,43.1,30.10,ENE,68,0.0,0.0,77,0.00,,,0.00,WUHU216HW,2013-11-14 13:27:00,
2013-11-14 05:32:00,49.9,43.2,30.11,NNW,338,0.0,0.0,78,0.00,,,0.00,WUHU216HW,2013-11-14 13:32:00,
2013-11-14 05:37:00,49.7,43.4,30.11,ENE,68,0.7,2.0,79,0.00,,,0.00,WUHU216HW,2013-11-14 13:37:00,
2013-11-14 05:42:00,49.7,43.0,30.10,ESE,113,0.0,2.0,78,0.00,,,0.00,WUHU216HW,2013-11-14 13:42:00,
2013-11-14 05:47:00,49.5,42.8,30.10,East,90,0.0,1.1,78,0.00,,,0.00,WUHU216HW,2013-11-14 13:47:00,
2013-11-14 05:52:00,49.5,43.2,30.10,ENE,68,0.2,0.9,79,0.00,,,0.00,WUHU216HW,2013-11-14 13:52:00,
2013-11-14 05:57:00,49.3,43.4,30.10,ENE,68,0.4,0.9,80,0.00,,,0.00,WUHU216HW,2013-11-14 13:57:00,
2013-11-14 06:02:00,49.3,42.7,30.11,NE,45,0.0,1.1,78,0.00,,,0.00,WUHU216HW,2013-11-14 14:02:00,
2013-11-14 06:07:00,49.3,42.7,30.10,ENE,68,0.0,1.1,78,0.00,,,0.00,WUHU216HW,2013-11-14 14:07:00,
2013-11-14 06:12:00,49.3,42.7,30.10,ENE,68,0.0,0.0,78,0.00,,,0.00,WUHU216HW,2013-11-14 14:12:00,
2013-11-14 06:17:00,49.3,42.7,30.10,ENE,68,0.0,0.0,78,0.00,,,0.00,WUHU216HW,2013-11-14 14:17:00,
2013-11-14 06:22:00,49.1,42.5,30.10,SE,135,0.4,0.9,78,0.00,,,0.00,WUHU216HW,2013-11-14 14:22:00,
2013-11-14 06:27:00,49.1,43.2,30.10,East,90,0.4,0.9,80,0.00,,,0.00,WUHU216HW,2013-11-14 14:27:00,
2013-11-14 06:32:00,49.1,42.8,30.11,East,90,0.0,0.4,79,0.00,,,0.00,WUHU216HW,2013-11-14 14:32:00,
2013-11-14 06:37:00,49.0,42.7,30.11,ENE,68,0.2,0.4,79,0.00,,,0.00,WUHU216HW,2013-11-14 14:37:00,
2013-11-14 06:42:00,49.0,42.7,30.11,ENE,68,0.0,0.7,79,0.00,,,0.00,WUHU216HW,2013-11-14 14:42:00,
2013-11-14 06:47:00,49.0,42.7,30.11,ENE,68,0.0,0.7,79,0.00,,,0.00,WUHU216HW,2013-11-14 14:47:00,
2013-11-14 06:52:00,49.0,42.7,30.11,East,90,0.0,0.0,79,0.00,,,0.00,WUHU216HW,2013-11-14 14:52:00,
2013-11-14 06:57:00,48.8,42.5,30.11,East,90,0.0,0.0,79,0.00,,,0.00,WUHU216HW,2013-11-14 14:57:00,
2013-11-14 07:02:00,48.8,42.5,30.11,East,90,0.0,0.0,79,0.00,,,0.00,WUHU216HW,2013-11-14 15:02:00,
2013-11-14 07:07:00,48.8,42.5,30.11,East,90,0.0,0.0,79,0.00,,,0.00,WUHU216HW,2013-11-14 15:07:00,
2013-11-14 07:12:00,48.6,42.7,30.11,North,0,0.0,0.0,80,0.00,,,0.00,WUHU216HW,2013-11-14 15:12:00,
2013-11-14 07:17:00,48.8,42.8,30.12,North,0,0.0,0.0,80,0.00,,,0.00,WUHU216HW,2013-11-14 15:17:00,
2013-11-14 07:22:00,48.8,42.8,30.12,ENE,68,0.0,0.7,80,0.00,,,0.00,WUHU216HW,2013-11-14 15:22:00,
2013-11-14 07:27:00,49.0,43.0,30.12,NE,45,0.0,0.7,80,0.00,,,0.00,WUHU216HW,2013-11-14 15:27:00,
2013-11-14 07:32:00,49.0,43.0,30.12,NW,315,0.0,0.0,80,0.00,,,0.00,WUHU216HW,2013-11-14 15:32:00,
2013-11-14 07:37:00,49.0,43.0,30.13,NW,315,0.4,0.7,80,0.00,,,0.00,WUHU216HW,2013-11-14 15:37:00,
2013-11-14 07:42:00,49.1,43.2,30.13,NW,315,1.1,1.3,80,0.00,,,0.00,WUHU216HW,2013-11-14 15:42:00,
2013-11-14 07:47:00,49.1,43.2,30.13,North,0,0.0,1.3,80,0.00,,,0.00,WUHU216HW,2013-11-14 15:47:00,
2013-11-14 07:52:00,49.0,42.7,30.13,NNW,338,0.4,1.1,79,0.00,,,0.00,WUHU216HW,2013-11-14 15:52:00,
2013-11-14 07:57:00,49.0,42.7,30.13,North,0,1.1,1.1,79,0.00,,,0.00,WUHU216HW,2013-11-14 15:57:00,
2013-11-14 08:02:00,49.0,42.3,30.13,NNW,338,0.9,1.1,78,0.00,,,0.00,WUHU216HW,2013-11-14 16:02:00,
2013-11-14 08:07:00,49.1,42.5,30.13,NNW,338,0.9,1.6,78,0.00,,,0.00,WUHU216HW,2013-11-14 16:07:00,
2013-11-14 08:12:00,49.1,42.5,30.13,NW,315,0.9,1.6,78,0.00,,,0.00,WUHU216HW,2013-11-14 16:12:00,
2013-11-14 08:17:00,49.3,42.7,30.14,NW,315,0.4,1.3,78,0.00,,,0.00,WUHU216HW,2013-11-14 16:17:00,
2013-11-14 08:22:00,49.3,42.7,30.14,NW,315,1.1,1.3,78,0.00,,,0.00,WUHU216HW,2013-11-14 16:22:00,
2013-11-14 08:27:00,49.9,43.2,30.14,NW,315,1.3,1.8,78,0.00,,,0.00,WUHU216HW,2013-11-14 16:27:00,
2013-11-14 08:32:00,49.9,43.2,30.14,NNW,338,0.9,1.8,78,0.00,,,0.00,WUHU216HW,2013-11-14 16:32:00,
2013-11-14 08:37:00,50.0,43.1,30.14,NNW,338,0.9,1.8,77,0.00,,,0.00,WUHU216HW,2013-11-14 16:37:00,
2013-11-14 08:42:00,50.0,43.1,30.14,North,0,1.8,2.2,77,0.00,,,0.00,WUHU216HW,2013-11-14 16:42:00,
2013-11-14 08:47:00,50.4,43.7,30.14,NNW,338,1.1,2.2,78,0.00,,,0.00,WUHU216HW,2013-11-14 16:47:00,
2013-11-14 08:52:00,50.8,43.8,30.14,NW,315,0.0,2.7,77,0.00,,,0.00,WUHU216HW,2013-11-14 16:52:00,
2013-11-14 08:57:00,50.9,44.0,30.14,NNW,338,1.8,2.7,77,0.00,,,0.00,WUHU216HW,2013-11-14 16:57:00,
2013-11-14 09:02:00,51.1,44.2,30.14,WNW,293,1.1,2.2,77,0.00,,,0.00,WUHU216HW,2013-11-14 17:02:00,
2013-11-14 09:07:00,51.3,44.0,30.14,NW,315,1.6,2.2,76,0.00,,,0.00,WUHU216HW,2013-11-14 17:07:00,
2013-11-14 09:12:00,51.5,44.6,30.13,North,0,0.4,2.2,77,0.00,,,0.00,WUHU216HW,2013-11-14 17:12:00,
2013-11-14 09:17:00,51.7,44.4,30.13,NNW,338,1.1,2.0,76,0.00,,,0.00,WUHU216HW,2013-11-14 17:17:00,
2013-11-14 09:22:00,52.0,45.1,30.13,North,0,0.4,2.0,77,0.00,,,0.00,WUHU216HW,2013-11-14 17:22:00,
2013-11-14 09:27:00,52.2,44.6,30.13,North,0,1.3,2.0,75,0.00,,,0.00,WUHU216HW,2013-11-14 17:27:00,
2013-11-14 09:32:00,52.2,44.9,30.13,WNW,293,1.1,1.8,76,0.00,,,0.00,WUHU216HW,2013-11-14 17:32:00,
2013-11-14 09:37:00,52.6,44.9,30.13,NNW,338,1.6,1.8,75,0.00,,,0.00,WUHU216HW,2013-11-14 17:37:00,
2013-11-14 09:42:00,52.7,45.0,30.13,NNW,338,1.1,1.8,75,0.00,,,0.00,WUHU216HW,2013-11-14 17:42:00,
2013-11-14 09:47:00,52.9,45.2,30.13,NNW,338,0.9,1.8,75,0.00,,,0.00,WUHU216HW,2013-11-14 17:47:00,
2013-11-14 09:52:00,53.1,45.4,30.13,NNE,23,0.0,1.8,75,0.00,,,0.00,WUHU216HW,2013-11-14 17:52:00,
2013-11-14 09:57:00,53.3,45.2,30.12,WNW,293,2.5,2.5,74,0.00,,,0.00,WUHU216HW,2013-11-14 17:57:00,
2013-11-14 10:02:00,53.5,45.7,30.12,NNW,338,1.8,2.5,75,0.00,,,0.00,WUHU216HW,2013-11-14 18:02:00,
2013-11-14 10:07:00,53.5,45.7,30.13,NNW,338,2.9,2.9,75,0.00,,,0.00,WUHU216HW,2013-11-14 18:07:00,
2013-11-14 10:12:00,53.6,45.5,30.12,North,0,0.4,2.9,74,0.00,,,0.00,WUHU216HW,2013-11-14 18:12:00,
2013-11-14 10:17:00,54.0,45.9,30.12,NNW,338,1.1,2.9,74,0.00,,,0.00,WUHU216HW,2013-11-14 18:17:00,
2013-11-14 10:22:00,54.0,45.6,30.13,NNW,338,0.4,2.7,73,0.00,,,0.00,WUHU216HW,2013-11-14 18:22:00,
2013-11-14 10:27:00,54.2,46.1,30.12,NNE,23,1.1,2.7,74,0.00,,,0.00,WUHU216HW,2013-11-14 18:27:00,
2013-11-14 10:32:00,54.4,45.9,30.12,NE,45,3.1,3.4,73,0.00,,,0.00,WUHU216HW,2013-11-14 18:32:00,
2013-11-14 10:37:00,54.7,46.3,30.12,NNE,23,1.8,3.4,73,0.00,,,0.00,WUHU216HW,2013-11-14 18:37:00,
2013-11-14 10:42:00,54.7,46.3,30.11,NNE,23,0.9,3.4,73,0.00,,,0.00,WUHU216HW,2013-11-14 18:42:00,
2013-11-14 10:47:00,54.7,45.9,30.11,NNW,338,0.4,3.4,72,0.00,,,0.00,WUHU216HW,2013-11-14 18:47:00,
2013-11-14 10:52:00,55.1,46.3,30.11,NNE,23,2.7,4.0,72,0.00,,,0.00,WUHU216HW,2013-11-14 18:52:00,
2013-11-14 10:57:00,55.1,45.9,30.11,NNE,23,1.1,4.0,71,0.00,,,0.00,WUHU216HW,2013-11-14 18:57:00,
2013-11-14 11:02:00,55.1,46.3,30.10,NNE,23,3.1,3.4,72,0.00,,,0.00,WUHU216HW,2013-11-14 19:02:00,
2013-11-14 11:07:00,55.4,46.6,30.10,NE,45,1.1,3.1,72,0.00,,,0.00,WUHU216HW,2013-11-14 19:07:00,
2013-11-14 11:12:00,55.4,46.3,30.10,NNW,338,0.4,3.4,71,0.00,,,0.00,WUHU216HW,2013-11-14 19:12:00,
2013-11-14 11:17:00,55.8,46.9,30.10,North,0,2.2,3.4,72,0.00,,,0.00,WUHU216HW,2013-11-14 19:17:00,
2013-11-14 11:22:00,56.2,46.9,30.09,ENE,68,3.4,5.1,71,0.00,,,0.00,WUHU216HW,2013-11-14 19:22:00,
2013-11-14 11:27:00,56.3,47.1,30.08,East,90,0.4,5.1,71,0.00,,,0.00,WUHU216HW,2013-11-14 19:27:00,
2013-11-14 11:32:00,56.3,47.1,30.08,ESE,113,3.4,4.0,71,0.00,,,0.00,WUHU216HW,2013-11-14 19:32:00,
2013-11-14 11:37:00,56.7,47.1,30.08,East,90,2.0,4.0,70,0.00,,,0.00,WUHU216HW,2013-11-14 19:37:00,
2013-11-14 11:42:00,57.1,47.0,30.08,ENE,68,1.1,3.4,69,0.00,,,0.00,WUHU216HW,2013-11-14 19:42:00,
2013-11-14 11:47:00,57.2,47.2,30.08,NNE,23,0.4,2.5,69,0.00,,,0.00,WUHU216HW,2013-11-14 19:47:00,
2013-11-14 11:52:00,57.6,47.5,30.08,SE,135,0.2,1.8,69,0.00,,,0.00,WUHU216HW,2013-11-14 19:52:00,
2013-11-14 11:57:00,57.8,47.7,30.08,North,0,1.1,1.6,69,0.00,,,0.00,WUHU216HW,2013-11-14 19:57:00,
2013-11-14 12:02:00,58.0,47.9,30.07,NNE,23,0.0,1.1,69,0.00,,,0.00,WUHU216HW,2013-11-14 20:02:00,
2013-11-14 12:07:00,58.3,47.8,30.07,ENE,68,1.8,2.2,68,0.00,,,0.00,WUHU216HW,2013-11-14 20:07:00,
2013-11-14 12:12:00,58.7,48.5,30.06,ESE,113,0.4,2.7,69,0.00,,,0.00,WUHU216HW,2013-11-14 20:12:00,
2013-11-14 12:17:00,59.0,48.1,30.06,ENE,68,0.9,2.7,67,0.00,,,0.00,WUHU216HW,2013-11-14 20:17:00,
2013-11-14 12:22:00,59.4,48.4,30.06,SE,135,1.3,2.0,67,0.00,,,0.00,WUHU216HW,2013-11-14 20:22:00,
2013-11-14 12:27:00,59.6,48.6,30.05,SE,135,1.1,2.2,67,0.00,,,0.00,WUHU216HW,2013-11-14 20:27:00,
2013-11-14 12:32:00,60.1,48.8,30.05,South,180,0.4,2.9,66,0.00,,,0.00,WUHU216HW,2013-11-14 20:32:00,
2013-11-14 12:37:00,60.5,49.2,30.05,South,180,1.8,2.9,66,0.00,,,0.00,WUHU216HW,2013-11-14 20:37:00,
2013-11-14 12:42:00,60.8,49.1,30.05,WSW,248,1.8,3.4,65,0.00,,,0.00,WUHU216HW,2013-11-14 20:42:00,
2013-11-14 12:47:00,61.2,49.4,30.05,WNW,293,1.1,3.4,65,0.00,,,0.00,WUHU216HW,2013-11-14 20:47:00,
2013-11-14 12:52:00,61.7,49.9,30.05,SSE,158,2.0,2.7,65,0.00,,,0.00,WUHU216HW,2013-11-14 20:52:00,
2013-11-14 12:57:00,62.1,49.3,30.05,NNE,23,1.1,2.7,63,0.00,,,0.00,WUHU216HW,2013-11-14 20:57:00,
2013-11-14 13:02:00,62.1,49.3,30.05,NW,315,2.2,2.2,63,0.00,,,0.00,WUHU216HW,2013-11-14 21:02:00,
2013-11-14 13:07:00,62.5,48.9,30.04,North,0,0.0,3.4,61,0.00,,,0.00,WUHU216HW,2013-11-14 21:07:00,
2013-11-14 13:12:00,62.6,49.4,30.04,WSW,248,0.9,3.4,62,0.00,,,0.00,WUHU216HW,2013-11-14 21:12:00,
2013-11-14 13:17:00,63.0,49.3,30.04,WNW,293,0.4,1.8,61,0.00,,,0.00,WUHU216HW,2013-11-14 21:17:00,
2013-11-14 13:22:00,63.2,49.1,30.03,NNE,23,1.3,2.7,60,0.00,,,0.00,WUHU216HW,2013-11-14 21:22:00,
2013-11-14 13:27:00,63.0,49.3,30.03,East,90,0.0,2.7,61,0.00,,,0.00,WUHU216HW,2013-11-14 21:27:00,
2013-11-14 13:32:00,63.2,49.5,30.02,North,0,0.2,2.5,61,0.00,,,0.00,WUHU216HW,2013-11-14 21:32:00,
2013-11-14 13:37:00,63.5,49.0,30.03,NW,315,1.1,2.7,59,0.00,,,0.00,WUHU216HW,2013-11-14 21:37:00,
2013-11-14 13:42:00,63.7,49.6,30.02,WNW,293,1.1,2.7,60,0.00,,,0.00,WUHU216HW,2013-11-14 21:42:00,
2013-11-14 13:47:00,63.9,49.8,30.02,ESE,113,0.0,1.8,60,0.00,,,0.00,WUHU216HW,2013-11-14 21:47:00,
2013-11-14 13:52:00,64.1,49.9,30.02,West,270,0.0,1.3,60,0.00,,,0.00,WUHU216HW,2013-11-14 21:52:00,
2013-11-14 13:57:00,64.3,49.6,30.02,WNW,293,0.4,2.2,59,0.00,,,0.00,WUHU216HW,2013-11-14 21:57:00,
2013-11-14 14:02:00,64.3,49.1,30.02,East,90,1.8,2.2,58,0.00,,,0.00,WUHU216HW,2013-11-14 22:02:00,
2013-11-14 14:07:00,64.4,49.2,30.02,North,0,0.9,2.0,58,0.00,,,0.00,WUHU216HW,2013-11-14 22:07:00,
2013-11-14 14:12:00,64.4,49.2,30.01,WSW,248,1.6,2.0,58,0.00,,,0.00,WUHU216HW,2013-11-14 22:12:00,
2013-11-14 14:17:00,64.6,50.0,30.01,SE,135,0.0,2.0,59,0.00,,,0.00,WUHU216HW,2013-11-14 22:17:00,
2013-11-14 14:22:00,64.6,49.4,30.00,North,0,0.9,1.6,58,0.00,,,0.00,WUHU216HW,2013-11-14 22:22:00,
2013-11-14 14:27:00,64.8,49.6,30.00,NE,45,0.0,1.1,58,0.00,,,0.00,WUHU216HW,2013-11-14 22:27:00,
2013-11-14 14:32:00,64.6,49.4,30.00,East,90,0.4,0.4,58,0.00,,,0.00,WUHU216HW,2013-11-14 22:32:00,
2013-11-14 14:37:00,64.4,48.8,30.00,ENE,68,0.7,1.3,57,0.00,,,0.00,WUHU216HW,2013-11-14 22:37:00,
2013-11-14 14:42:00,64.4,49.2,29.99,ESE,113,0.0,1.3,58,0.00,,,0.00,WUHU216HW,2013-11-14 22:42:00,
2013-11-14 14:47:00,64.4,49.2,30.00,NNE,23,0.0,1.1,58,0.00,,,0.00,WUHU216HW,2013-11-14 22:47:00,
2013-11-14 14:52:00,64.6,49.4,29.99,NNE,23,0.0,0.0,58,0.00,,,0.00,WUHU216HW,2013-11-14 22:52:00,
2013-11-14 14:57:00,64.6,49.4,29.99,NNE,23,0.0,0.0,58,0.00,,,0.00,WUHU216HW,2013-11-14 22:57:00,
2013-11-14 15:02:00,64.8,49.6,29.99,SSW,203,0.0,0.4,58,0.00,,,0.00,WUHU216HW,2013-11-14 23:02:00,
2013-11-14 15:07:00,64.8,49.6,29.99,NW,315,1.1,1.6,58,0.00,,,0.00,WUHU216HW,2013-11-14 23:07:00,
2013-11-14 15:12:00,65.0,49.3,29.99,SW,225,0.0,1.6,57,0.00,,,0.00,WUHU216HW,2013-11-14 23:12:00,
2013-11-14 15:17:00,65.2,49.5,29.99,SSW,203,1.3,1.6,57,0.00,,,0.00,WUHU216HW,2013-11-14 23:17:00,
2013-11-14 15:22:00,65.2,50.0,29.99,WSW,248,0.7,1.6,58,0.00,,,0.00,WUHU216HW,2013-11-14 23:22:00,
2013-11-14 15:27:00,65.3,50.1,29.98,WSW,248,0.7,1.6,58,0.00,,,0.00,WUHU216HW,2013-11-14 23:27:00,
2013-11-14 15:32:00,65.5,49.9,29.98,SE,135,0.0,1.6,57,0.00,,,0.00,WUHU216HW,2013-11-14 23:32:00,
2013-11-14 15:37:00,65.5,49.9,29.98,SE,135,0.0,1.1,57,0.00,,,0.00,WUHU216HW,2013-11-14 23:37:00,
2013-11-14 15:42:00,65.3,49.7,29.97,SW,225,0.0,1.1,57,0.00,,,0.00,WUHU216HW,2013-11-14 23:42:00,
2013-11-14 15:47:00,65.3,49.7,29.97,SSE,158,0.4,1.1,57,0.00,,,0.00,WUHU216HW,2013-11-14 23:47:00,
2013-11-14 15:52:00,65.2,49.5,29.97,South,180,0.0,1.1,57,0.00,,,0.00,WUHU216HW,2013-11-14 23:52:00,
2013-11-14 15:57:00,65.0,49.3,29.97,WSW,248,0.0,0.9,57,0.00,,,0.00,WUHU216HW,2013-11-14 23:57:00,
2013-11-14 16:02:00,64.8,49.2,29.96,SSW,203,0.7,0.9,57,0.00,,,0.00,WUHU216HW,2013-11-15 00:02:00,
2013-11-14 16:07:00,64.4,49.2,29.96,SSW,203,0.4,1.3,58,0.00,,,0.00,WUHU216HW,2013-11-15 00:07:00,
2013-11-14 16:12:00,64.3,49.1,29.96,SSW,203,0.4,1.3,58,0.00,,,0.00,WUHU216HW,2013-11-15 00:12:00,
2013-11-14 16:17:00,64.1,49.0,29.96,SW,225,0.0,1.1,58,0.00,,,0.00,WUHU216HW,2013-11-15 00:17:00,
2013-11-14 16:22:00,63.9,49.2,29.96,SSW,203,0.0,0.4,59,0.00,,,0.00,WUHU216HW,2013-11-15 00:22:00,
2013-11-14 16:27:00,63.7,49.1,29.96,South,180,0.0,0.0,59,0.00,,,0.00,WUHU216HW,2013-11-15 00:27:00,
2013-11-14 16:32:00,63.4,49.2,29.95,SSE,158,0.0,0.0,60,0.00,,,0.00,WUHU216HW,2013-11-15 00:32:00,
2013-11-14 16:37:00,62.8,48.8,29.95,SSE,158,0.0,0.2,60,0.00,,,0.00,WUHU216HW,2013-11-15 00:37:00,
2013-11-14 16:42:00,62.6,49.1,29.95,SSE,158,0.0,0.2,61,0.00,,,0.00,WUHU216HW,2013-11-15 00:42:00,
2013-11-14 16:47:00,62.1,49.0,29.95,SSE,158,0.0,0.0,62,0.00,,,0.00,WUHU216HW,2013-11-15 00:47:00,
2013-11-14 16:52:00,61.9,49.2,29.95,SSE,158,0.0,0.0,63,0.00,,,0.00,WUHU216HW,2013-11-15 00:52:00,
2013-11-14 16:57:00,61.4,48.7,29.95,ESE,113,0.0,1.8,63,0.00,,,0.00,WUHU216HW,2013-11-15 00:57:00,
2013-11-14 17:02:00,60.8,48.6,29.95,ESE,113,0.0,1.8,64,0.00,,,0.00,WUHU216HW,2013-11-15 01:02:00,
2013-11-14 17:06:00,60.5,48.7,29.95,ESE,113,0.0,0.0,65,0.00,,,0.00,WUHU216HW,2013-11-15 01:06:00,
2013-11-14 17:11:00,60.3,48.5,29.94,East,90,0.0,0.2,65,0.00,,,0.00,WUHU216HW,2013-11-15 01:11:00,
2013-11-14 17:16:00,59.9,47.7,29.94,ESE,113,0.2,0.2,64,0.00,,,0.00,WUHU216HW,2013-11-15 01:16:00,
2013-11-14 19:07:00,55.3,45.7,29.91,SSE,158,0.7,0.7,70,0.00,,,0.00,WUHU216HW,2013-11-15 03:07:00,
2013-11-14 19:12:00,55.1,45.5,29.91,SSE,158,1.1,1.6,70,0.00,,,0.00,WUHU216HW,2013-11-15 03:12:00,
2013-11-14 19:17:00,54.7,45.6,29.91,SSW,203,0.0,1.6,71,0.00,,,0.00,WUHU216HW,2013-11-15 03:17:00,
2013-11-14 19:22:00,54.5,45.7,29.92,WNW,293,0.0,1.3,72,0.00,,,0.00,WUHU216HW,2013-11-15 03:22:00,
2013-11-14 19:27:00,54.5,45.7,29.91,North,0,0.0,0.0,72,0.00,,,0.00,WUHU216HW,2013-11-15 03:27:00,
2013-11-14 19:32:00,54.5,45.7,29.91,NNE,23,0.0,0.4,72,0.00,,,0.00,WUHU216HW,2013-11-15 03:32:00,
2013-11-14 19:37:00,54.4,45.6,29.91,NNE,23,0.0,0.4,72,0.00,,,0.00,WUHU216HW,2013-11-15 03:37:00,
2013-11-14 19:42:00,54.4,45.9,29.90,NE,45,0.0,0.2,73,0.00,,,0.00,WUHU216HW,2013-11-15 03:42:00,
2013-11-14 19:47:00,54.2,45.7,29.90,NE,45,0.0,0.4,73,0.00,,,0.00,WUHU216HW,2013-11-15 03:47:00,
2013-11-14 19:52:00,54.0,45.9,29.90,ENE,68,0.7,1.1,74,0.00,,,0.00,WUHU216HW,2013-11-15 03:52:00,
2013-11-14 19:57:00,53.6,45.5,29.91,NNW,338,0.0,1.1,74,0.00,,,0.00,WUHU216HW,2013-11-15 03:57:00,
2013-11-14 20:02:00,53.6,45.5,29.90,ENE,68,0.0,0.9,74,0.00,,,0.00,WUHU216HW,2013-11-15 04:02:00,
2013-11-14 20:07:00,53.3,45.2,29.90,North,0,0.0,0.7,74,0.00,,,0.00,WUHU216HW,2013-11-15 04:07:00,
2013-11-14 20:12:00,53.1,44.6,29.90,NNW,338,0.0,0.0,73,0.00,,,0.00,WUHU216HW,2013-11-15 04:12:00,
2013-11-14 20:17:00,52.9,44.6,29.90,NNW,338,0.0,0.0,73,0.00,,,0.00,WUHU216HW,2013-11-15 04:17:00,
2013-11-14 20:22:00,52.9,44.8,29.90,ENE,68,0.0,0.0,74,0.00,,,0.00,WUHU216HW,2013-11-15 04:22:00,
2013-11-14 20:27:00,52.7,45.0,29.89,ENE,68,0.2,1.6,75,0.00,,,0.00,WUHU216HW,2013-11-15 04:27:00,
2013-11-14 20:32:00,52.7,45.4,29.89,NE,45,0.2,1.6,76,0.00,,,0.00,WUHU216HW,2013-11-15 04:32:00,
2013-11-14 20:37:00,52.4,45.1,29.89,WSW,248,0.7,1.1,76,0.00,,,0.00,WUHU216HW,2013-11-15 04:37:00,
2013-11-14 20:42:00,52.2,44.6,29.89,SSW,203,0.0,1.1,75,0.00,,,0.00,WUHU216HW,2013-11-15 04:42:00,
2013-11-14 20:47:00,52.2,44.6,29.89,SSW,203,0.0,0.9,75,0.00,,,0.00,WUHU216HW,2013-11-15 04:47:00,
2013-11-14 20:52:00,52.0,44.4,29.89,ESE,113,1.1,1.1,75,0.00,,,0.00,WUHU216HW,2013-11-15 04:52:00,
2013-11-14 20:57:00,51.8,44.9,29.89,NE,45,1.1,1.3,77,0.00,,,0.00,WUHU216HW,2013-11-15 04:57:00,
2013-11-14 21:01:00,51.8,44.9,29.89,ENE,68,1.6,1.6,77,0.00,,,0.00,WUHU216HW,2013-11-15 05:01:00,
2013-11-14 21:02:00,51.8,45.2,29.89,ENE,68,1.1,1.6,78,0.00,,,0.00,WUHU216HW,2013-11-15 05:02:00,
2013-11-14 21:07:00,51.8,44.9,29.89,ESE,113,0.2,1.8,77,0.00,,,0.00,WUHU216HW,2013-11-15 05:07:00,
2013-11-14 21:12:00,51.7,44.7,29.89,ESE,113,0.0,1.8,77,0.00,,,0.00,WUHU216HW,2013-11-15 05:12:00,
2013-11-14 21:17:00,51.7,44.7,29.89,NE,45,1.1,1.1,77,0.00,,,0.00,WUHU216HW,2013-11-15 05:17:00,
2013-11-14 21:22:00,51.7,45.7,29.89,NE,45,2.0,2.7,80,0.00,,,0.00,WUHU216HW,2013-11-15 05:22:00,
2013-11-14 21:27:00,51.7,45.7,29.89,North,0,1.3,2.7,80,0.00,,,0.00,WUHU216HW,2013-11-15 05:27:00,
2013-11-14 21:32:00,51.5,45.8,29.89,ENE,68,0.7,2.5,81,0.00,,,0.00,WUHU216HW,2013-11-15 05:32:00,
2013-11-14 21:37:00,51.5,45.2,29.89,East,90,0.4,2.0,79,0.00,,,0.00,WUHU216HW,2013-11-15 05:37:00,
2013-11-14 21:42:00,51.3,45.0,29.89,NE,45,0.2,2.0,79,0.00,,,0.00,WUHU216HW,2013-11-15 05:42:00,
2013-11-14 21:47:00,51.1,45.2,29.89,NW,315,0.7,1.1,80,0.00,,,0.00,WUHU216HW,2013-11-15 05:47:00,
2013-11-14 21:52:00,50.9,45.0,29.89,NW,315,0.7,1.8,80,0.00,,,0.00,WUHU216HW,2013-11-15 05:52:00,
2013-11-14 21:57:00,50.9,45.0,29.89,NW,315,1.3,1.8,80,0.00,,,0.00,WUHU216HW,2013-11-15 05:57:00,
2013-11-14 22:02:00,50.9,45.0,29.89,NW,315,1.1,1.3,80,0.00,,,0.00,WUHU216HW,2013-11-15 06:02:00,
2013-11-14 22:07:00,50.8,45.1,29.89,NW,315,1.8,1.8,81,0.00,,,0.00,WUHU216HW,2013-11-15 06:07:00,
2013-11-14 22:12:00,50.6,44.9,29.89,NNE,23,1.1,1.8,81,0.00,,,0.00,WUHU216HW,2013-11-15 06:12:00,
2013-11-14 22:17:00,50.4,45.1,29.89,North,0,1.8,2.7,82,0.00,,,0.00,WUHU216HW,2013-11-15 06:17:00,
2013-11-14 22:22:00,50.2,44.9,29.90,NNW,338,1.8,2.7,82,0.00,,,0.00,WUHU216HW,2013-11-15 06:22:00,
2013-11-14 22:27:00,50.0,44.7,29.90,NNW,338,1.3,2.5,82,0.00,,,0.00,WUHU216HW,2013-11-15 06:27:00,
2013-11-14 22:32:00,49.9,44.6,29.89,North,0,2.5,2.5,82,0.00,,,0.00,WUHU216HW,2013-11-15 06:32:00,
2013-11-14 22:37:00,49.5,44.8,29.89,NNW,338,2.2,3.1,84,0.00,,,0.00,WUHU216HW,2013-11-15 06:37:00,
2013-11-14 22:42:00,49.3,44.3,29.89,NNW,338,0.9,3.1,83,0.00,,,0.00,WUHU216HW,2013-11-15 06:42:00,
2013-11-14 22:47:00,49.3,44.3,29.90,NNW,338,1.3,4.3,83,0.00,,,0.00,WUHU216HW,2013-11-15 06:47:00,
2013-11-14 22:52:00,49.1,44.5,29.89,NNW,338,2.9,4.3,84,0.00,,,0.00,WUHU216HW,2013-11-15 06:52:00,
2013-11-14 22:57:00,49.0,44.0,29.90,NW,315,3.4,3.6,83,0.00,,,0.00,WUHU216HW,2013-11-15 06:57:00,
2013-11-14 23:02:00,49.0,44.3,29.90,North,0,1.8,3.4,84,0.00,,,0.00,WUHU216HW,2013-11-15 07:02:00,
2013-11-14 23:07:00,49.0,44.0,29.90,North,0,1.3,3.6,83,0.00,,,0.00,WUHU216HW,2013-11-15 07:07:00,
2013-11-14 23:12:00,48.8,43.8,29.90,NNW,338,1.6,3.6,83,0.00,,,0.00,WUHU216HW,2013-11-15 07:12:00,
2013-11-14 23:17:00,48.8,44.1,29.91,North,0,3.8,5.1,84,0.00,,,0.00,WUHU216HW,2013-11-15 07:17:00,
2013-11-14 23:22:00,49.0,44.3,29.91,NW,315,1.6,5.1,84,0.00,,,0.00,WUHU216HW,2013-11-15 07:22:00,
2013-11-14 23:27:00,49.0,44.3,29.90,North,0,1.6,4.7,84,0.00,,,0.00,WUHU216HW,2013-11-15 07:27:00,
2013-11-14 23:32:00,49.1,44.1,29.90,North,0,1.1,3.4,83,0.00,,,0.00,WUHU216HW,2013-11-15 07:32:00,
2013-11-14 23:37:00,49.0,44.0,29.90,North,0,1.3,2.7,83,0.00,,,0.00,WUHU216HW,2013-11-15 07:37:00,
2013-11-14 23:42:00,49.0,44.0,29.90,NNW,338,0.9,2.7,83,0.00,,,0.00,WUHU216HW,2013-11-15 07:42:00,
2013-11-14 23:47:00,49.0,44.0,29.90,North,0,1.6,1.6,83,0.00,,,0.00,WUHU216HW,2013-11-15 07:47:00,
2013-11-14 23:52:00,48.8,43.8,29.90,NNW,338,2.0,2.7,83,0.00,,,0.00,WUHU216HW,2013-11-15 07:52:00,
2013-11-14 23:57:00,48.6,43.7,29.89,NNW,338,0.9,2.7,83,0.00,,,0.00,WUHU216HW,2013-11-15 07:57:00,